TimeEST,TemperatureF,Dew PointF,Humidity,Sea Level PressureIn,VisibilityMPH,Wind Direction,Wind SpeedMPH,Gust SpeedMPH,PrecipitationIn,Events,Conditions,WindDirDegrees,DateUTC
12:24 AM,66.2,62.6,88,30.26,1.8,NE,8.1,23.0,0.09,Rain,Heavy Rain,50,2013-11-05 05:24:00
12:28 AM,66.2,62.6,88,30.26,2.0,NE,4.6,-,0.10,Rain,Heavy Rain,40,2013-11-05 05:28:00
12:39 AM,66.2,64.4,94,30.25,7.0,NNE,8.1,-,0.10,Rain,Light Rain,20,2013-11-05 05:39:00
12:53 AM,68.0,64.0,87,30.25,10.0,NE,12.7,-,0.10,,Overcast,40,2013-11-05 05:53:00
1:27 AM,68.0,64.4,88,30.23,10.0,NE,11.5,-,N/A,,Overcast,50,2013-11-05 06:27:00
1:53 AM,68.0,64.0,87,30.22,10.0,NE,12.7,20.7,N/A,,Mostly Cloudy,50,2013-11-05 06:53:00
2:53 AM,68.0,64.0,87,30.21,10.0,NE,16.1,25.3,N/A,,Overcast,40,2013-11-05 07:53:00
3:33 AM,68.0,62.6,83,30.20,10.0,NNE,12.7,19.6,N/A,,Overcast,30,2013-11-05 08:33:00
3:53 AM,66.9,63.0,87,30.21,10.0,NNE,12.7,25.3,N/A,,Overcast,30,2013-11-05 08:53:00
4:16 AM,68.0,64.4,88,30.21,10.0,NNE,13.8,21.9,N/A,,Overcast,30,2013-11-05 09:16:00
4:53 AM,68.0,64.0,87,30.22,10.0,NE,17.3,20.7,N/A,,Overcast,40,2013-11-05 09:53:00
5:33 AM,68.0,62.6,83,30.23,10.0,NNE,13.8,24.2,N/A,,Overcast,30,2013-11-05 10:33:00
5:53 AM,68.0,63.0,84,30.23,10.0,NNE,15.0,24.2,N/A,,Overcast,30,2013-11-05 10:53:00
6:27 AM,69.8,64.4,83,30.24,10.0,NE,13.8,21.9,N/A,,Overcast,40,2013-11-05 11:27:00
6:53 AM,69.1,64.0,84,30.25,6.0,NE,12.7,18.4,0.00,Rain,Light Rain,40,2013-11-05 11:53:00
7:07 AM,69.8,64.4,83,30.25,4.0,NE,13.8,23.0,0.01,Rain,Light Rain,50,2013-11-05 12:07:00
7:53 AM,69.1,64.0,84,30.26,10.0,NE,17.3,24.2,0.01,,Overcast,50,2013-11-05 12:53:00
8:04 AM,69.8,64.4,83,30.26,8.0,NE,15.0,26.5,N/A,,Overcast,50,2013-11-05 13:04:00
8:17 AM,68.0,64.4,88,30.27,6.0,NE,15.0,25.3,0.00,Rain,Light Rain,40,2013-11-05 13:17:00
8:53 AM,68.0,64.0,87,30.28,10.0,NE,13.8,21.9,0.01,,Overcast,40,2013-11-05 13:53:00
9:35 AM,69.8,64.4,83,30.28,10.0,NE,11.5,21.9,N/A,,Overcast,50,2013-11-05 14:35:00
9:53 AM,71.1,64.9,81,30.28,10.0,NE,13.8,20.7,N/A,,Overcast,50,2013-11-05 14:53:00
10:53 AM,71.1,64.0,78,30.28,10.0,NNE,15.0,25.3,N/A,,Overcast,30,2013-11-05 15:53:00
11:53 AM,69.1,63.0,81,30.27,10.0,NNE,13.8,23.0,N/A,,Overcast,30,2013-11-05 16:53:00
12:37 PM,68.0,62.6,83,30.25,10.0,NNE,12.7,20.7,N/A,,Overcast,30,2013-11-05 17:37:00
12:53 PM,66.9,62.1,84,30.25,8.0,NNE,15.0,25.3,0.00,Rain,Light Rain,30,2013-11-05 17:53:00
1:53 PM,68.0,62.1,81,30.23,10.0,NNE,15.0,23.0,0.00,,Overcast,20,2013-11-05 18:53:00
2:53 PM,68.0,62.1,81,30.23,10.0,NNE,13.8,25.3,N/A,,Overcast,20,2013-11-05 19:53:00
3:46 PM,68.0,60.8,78,30.23,10.0,NNE,13.8,27.6,N/A,,Overcast,30,2013-11-05 20:46:00
3:53 PM,66.9,61.0,81,30.23,8.0,NE,20.7,27.6,0.00,Rain,Light Rain,40,2013-11-05 20:53:00
4:20 PM,66.2,62.6,88,30.23,2.5,NE,12.7,20.7,0.01,Rain,Light Rain,40,2013-11-05 21:20:00
4:28 PM,64.4,62.6,94,30.23,3.0,NNE,12.7,18.4,0.01,Rain,Light Rain,20,2013-11-05 21:28:00
4:37 PM,64.4,62.6,94,30.23,10.0,NNE,11.5,24.2,0.01,,Overcast,20,2013-11-05 21:37:00
4:53 PM,66.0,62.1,87,30.23,10.0,NNE,18.4,25.3,0.01,,Overcast,20,2013-11-05 21:53:00
5:53 PM,66.0,62.1,87,30.22,10.0,NNE,13.8,24.2,0.00,Rain,Light Rain,20,2013-11-05 22:53:00
6:53 PM,68.0,64.0,87,30.22,10.0,North,9.2,19.6,0.00,,Overcast,10,2013-11-05 23:53:00
7:53 PM,68.0,64.9,90,30.23,10.0,North,6.9,-,0.00,,Overcast,10,2013-11-06 00:53:00
8:53 PM,70.0,66.0,87,30.23,10.0,NNE,12.7,17.3,0.00,,Overcast,30,2013-11-06 01:53:00
9:53 PM,70.0,66.0,87,30.22,9.0,NNE,12.7,18.4,N/A,,Overcast,30,2013-11-06 02:53:00
10:53 PM,70.0,66.0,87,30.22,9.0,NE,5.8,-,N/A,,Overcast,40,2013-11-06 03:53:00
11:11 PM,69.8,66.2,88,30.21,9.0,NNE,9.2,-,N/A,,Overcast,30,2013-11-06 04:11:00
11:53 PM,70.0,66.0,87,30.21,9.0,NNE,8.1,-,N/A,,Overcast,30,2013-11-06 04:53:00